Theta_e
305 304 303 302 301 301 300 300 300 301 301 299 297 301 298 296 294 304 306 307 303 296 291 293 291 289 290 293 291 293 291 291 294 294 295 292 292 287 287 288 287 289 287 288 289 289 286 288 287 288 289 290 292 294 295 296 295 295 292 293 296 294 289 287 288 291 293 296 298 298 299 297 294 294 296 295 293 295 294 294 295 291 292 290 290 286 293
305 304 303 303 302 301 300 300 300 300 301 299 299 297 296 297 297 299 307 307 302 294 285 285 287 289 291 291 289 294 292 292 292 292 294 293 290 286 286 287 292 290 293 291 289 290 284 290 289 288 291 290 296 296 296 297 294 293 292 291 296 287 290 288 283 283 286 289 293 294 297 296 293 292 295 296 296 296 298 298 298 290 292 292 290 284 291
305 304 303 303 302 301 300 300 300 300 301 302 299 294 296 297 300 298 301 305 302 291 291 288 285 287 287 286 287 291 292 295 294 294 293 297 295 291 287 289 293 292 291 290 292 292 288 287 292 293 291 293 296 296 296 297 295 295 296 296 296 289 289 288 281 279 276 276 279 282 286 290 293 295 294 295 294 295 294 290 292 288 293 293 291 291 298
304 304 303 303 302 301 300 299 299 300 301 301 300 296 296 294 287 295 297 301 299 298 297 292 288 287 287 285 289 290 287 294 297 297 295 296 297 296 290 293 294 291 288 288 288 289 293 289 289 289 290 294 294 296 296 296 296 296 297 296 296 291 293 292 289 286 284 287 290 294 294 293 289 291 293 293 295 296 297 296 291 288 292 291 295 297 298
304 304 303 303 302 301 300 299 299 300 301 301 300 299 296 297 289 287 286 294 297 294 296 292 290 287 291 285 289 285 288 290 293 297 291 297 295 295 295 293 289 290 291 288 288 292 292 294 292 291 294 293 294 296 296 296 296 298 297 299 297 294 289 292 293 292 292 293 293 294 294 292 292 292 292 293 293 295 295 290 290 297 294 289 297 299 297
304 304 303 303 302 301 300 299 299 300 300 300 302 296 296 290 291 292 292 286 288 289 291 292 290 293 293 288 290 287 286 288 285 291 294 295 297 292 293 293 293 290 290 291 287 288 289 290 288 294 296 294 294 292 295 294 297 297 297 300 297 294 288 293 293 292 294 295 294 295 294 294 293 293 293 293 294 294 293 293 296 298 292 292 298 301 297
304 304 303 303 302 301 300 299 299 299 300 301 300 294 296 295 292 292 295 287 291 290 290 290 290 290 291 289 291 287 287 285 288 287 289 292 294 294 285 290 291 291 293 293 288 288 285 286 294 294 294 292 292 291 291 294 297 297 298 298 299 294 290 294 294 293 294 293 294 294 293 293 293 293 293 294 294 294 295 295 297 297 297 298 300 300 300
304 303 303 303 303 301 301 300 299 300 300 301 297 293 290 287 286 288 293 291 290 292 293 292 292 289 291 286 289 288 287 285 287 289 288 285 289 294 289 289 290 291 292 293 290 285 289 291 289 296 296 292 294 291 292 291 295 296 295 296 298 294 289 293 294 291 292 294 294 294 294 293 292 293 293 294 294 294 295 297 298 299 298 299 298 299 298
303 303 303 303 303 302 301 300 299 299 300 296 293 292 293 292 294 292 286 285 292 294 294 293 292 290 290 286 288 288 289 286 288 286 292 290 288 291 287 289 288 292 292 293 293 295 294 295 295 297 297 290 296 290 292 297 291 292 293 296 297 296 291 296 294 288 289 293 293 293 294 294 293 293 293 293 293 292 294 293 298 297 296 297 297 296 298
303 303 303 303 303 302 301 300 299 299 300 295 293 289 295 294 296 295 289 285 291 291 294 295 293 288 290 289 289 288 288 290 291 285 293 294 294 293 292 292 291 291 294 294 294 297 297 298 299 299 299 299 299 298 299 299 296 295 294 298 296 296 293 290 290 288 287 293 294 294 293 292 289 289 293 295 295 296 296 297 298 299 300 296 291 296 307
303 303 303 303 303 302 301 300 299 299 299 294 293 292 293 290 288 290 291 284 290 293 291 293 291 292 292 292 290 292 291 292 292 284 286 294 295 297 296 294 293 292 293 295 301 302 301 302 301 302 300 302 299 300 300 300 300 300 299 298 297 297 295 291 295 287 288 292 294 294 290 282 284 297 300 298 296 296 295 295 297 301 302 298 305 306 312
303 303 303 303 303 302 302 301 300 299 298 299 299 294 296 296 294 292 287 284 287 293 291 290 291 292 292 293 292 291 291 291 292 294 288 292 296 298 297 296 296 290 301 305 304 303 304 304 302 303 302 299 298 299 300 299 300 302 301 297 296 296 295 292 295 289 288 292 293 287 281 284 300 301 302 300 300 298 297 298 298 300 300 302 303 303 310
303 303 303 303 303 302 302 301 300 299 299 299 298 293 297 298 293 290 288 284 285 290 288 291 294 294 294 294 293 293 294 295 296 296 296 296 295 298 299 297 297 299 304 303 303 303 298 295 295 295 294 295 296 297 297 298 298 300 301 301 298 293 292 293 291 292 291 289 288 280 283 297 301 303 303 305 303 301 299 297 301 304 304 305 304 304 313
303 303 303 303 303 302 302 302 301 300 299 299 297 296 297 297 291 290 288 284 285 290 291 291 294 293 292 293 294 294 296 296 295 297 294 298 296 297 300 302 303 306 305 305 302 301 294 293 287 289 289 291 292 292 296 299 300 299 300 301 301 298 297 295 290 295 286 287 287 287 296 296 297 296 298 298 296 298 296 291 297 305 308 307 305 308 313
304 303 303 303 303 302 302 302 302 300 299 298 299 298 297 297 296 291 291 288 283 286 291 287 290 290 291 293 295 292 294 294 293 293 297 296 296 300 302 303 306 306 306 303 299 299 293 290 286 285 285 286 283 286 296 293 299 301 301 302 301 300 295 296 291 288 291 288 287 287 287 283 290 301 304 307 308 309 306 300 297 308 309 311 309 309 314
304 303 303 303 303 303 302 302 302 301 300 299 298 296 297 298 298 295 292 288 284 283 291 294 293 291 290 292 295 293 291 291 291 292 295 298 299 301 304 304 306 308 306 303 301 296 291 288 285 286 284 285 290 289 287 294 294 298 301 300 300 300 300 299 294 290 290 289 286 285 284 287 299 302 305 307 308 308 309 300 294 307 311 311 311 313 315
304 304 303 303 303 303 303 302 302 302 301 299 297 296 296 300 296 293 290 289 287 284 294 295 295 294 292 293 295 293 293 289 291 286 287 292 297 300 301 304 308 307 304 303 300 295 291 289 289 289 289 292 288 285 292 291 290 292 297 299 297 296 296 294 292 289 290 289 288 286 290 289 300 305 306 306 309 307 302 288 289 308 312 312 312 316 316
304 304 304 303 303 303 303 303 302 302 302 300 299 296 296 300 300 297 292 289 285 286 293 296 293 290 290 291 290 294 295 294 293 293 291 295 298 297 298 301 300 305 307 298 298 292 290 290 287 287 287 293 293 293 284 290 288 289 290 292 292 292 293 294 289 290 290 288 289 292 292 299 306 305 308 305 306 305 290 286 299 312 313 313 315 318 318
304 304 304 304 303 303 303 303 303 302 302 302 301 298 297 299 299 299 293 289 287 284 293 296 295 293 295 297 294 295 294 292 291 288 290 293 296 298 299 299 303 295 302 296 298 292 290 290 294 291 287 291 294 286 291 287 287 293 294 291 292 292 293 292 293 290 290 290 288 290 294 301 307 309 306 306 301 289 289 303 312 315 314 314 318 318 318
304 304 304 304 303 303 303 303 302 302 302 302 300 295 297 299 300 298 292 286 287 285 289 292 294 292 296 294 293 293 295 296 296 293 293 290 298 298 298 293 300 301 297 300 291 294 290 287 290 293 290 291 292 294 290 291 295 292 292 295 292 291 290 289 290 291 294 291 290 288 285 296 309 308 304 306 296 298 308 312 314 316 316 316 317 318 317
303 304 304 304 304 303 303 303 303 302 302 302 300 296 294 300 299 300 298 293 287 283 289 297 296 295 296 296 297 296 294 293 295 293 295 295 298 296 289 287 294 296 291 293 288 289 291 289 292 290 294 293 293 294 287 288 292 297 296 294 296 299 290 290 290 293 290 290 287 288 299 305 310 311 298 308 310 313 314 312 311 316 318 317 318 318 319
303 304 304 304 304 303 303 303 303 302 302 302 300 298 294 297 299 299 299 297 290 286 290 296 296 295 297 298 298 299 297 297 298 299 296 293 299 297 297 298 298 298 298 298 295 292 295 294 296 292 290 293 298 290 291 288 287 294 300 298 290 298 295 296 294 300 295 294 298 305 308 309 311 312 311 312 314 316 317 316 314 313 315 318 317 318 320
304 304 304 304 303 303 303 303 303 302 302 302 301 298 293 296 297 300 298 292 294 294 296 296 297 298 299 299 301 301 301 302 301 300 299 295 293 299 299 299 299 303 302 301 295 294 295 296 291 294 293 295 292 292 294 293 289 293 290 297 296 300 301 299 300 300 305 307 307 309 309 310 311 312 314 314 314 316 318 315 313 315 318 318 317 319 320
304 304 303 303 302 303 303 303 303 302 302 302 301 298 296 297 297 297 295 293 291 287 294 297 293 293 299 298 301 303 302 301 301 302 303 301 293 295 302 302 303 302 301 301 303 297 297 294 296 297 291 297 299 294 291 289 289 295 295 294 299 300 302 303 299 301 299 293 307 306 307 309 311 312 314 315 315 314 316 315 315 316 317 318 320 320 321
304 303 302 302 301 302 302 303 303 302 302 302 301 301 300 298 299 297 292 285 287 286 284 289 294 299 301 302 304 303 303 304 304 303 302 301 299 296 297 302 304 300 299 301 303 301 298 294 297 296 291 298 299 292 299 295 294 299 292 294 297 298 304 300 298 300 297 297 305 308 310 311 312 312 311 311 313 315 316 316 316 318 319 319 319 320 320
303 302 302 301 302 302 302 303 303 302 302 302 302 299 296 296 299 300 296 294 292 289 284 286 295 303 304 302 300 302 304 304 303 302 302 301 301 302 301 303 303 306 303 303 301 297 296 296 297 295 295 294 303 295 295 299 299 302 298 296 300 301 304 294 299 300 302 304 307 308 309 309 310 311 313 313 314 314 315 316 317 318 317 317 319 321 320
303 302 302 302 302 302 302 303 303 302 302 302 302 301 299 299 301 298 294 292 288 287 288 287 294 298 300 298 302 303 303 304 304 303 302 301 301 302 301 301 300 301 301 301 302 298 298 297 296 295 300 297 301 300 301 301 301 296 297 302 306 303 298 301 300 295 296 298 303 305 298 296 306 310 312 313 315 316 315 316 316 317 318 319 318 318 319
302 302 302 302 302 303 303 303 303 303 302 302 302 301 301 300 301 301 299 296 292 288 288 288 289 294 299 299 302 303 304 304 304 303 302 302 302 301 301 300 300 299 299 298 295 296 296 295 296 296 295 302 300 298 304 303 302 301 302 303 306 302 302 304 296 294 296 304 306 307 307 309 310 312 314 315 316 316 315 315 315 317 318 319 318 317 318
302 302 302 302 302 302 302 303 302 302 302 302 302 299 299 302 302 301 299 299 297 292 290 290 294 295 292 298 303 303 305 305 304 304 303 302 302 302 301 301 300 300 300 298 296 296 296 297 297 297 297 303 300 297 300 292 293 292 299 305 308 308 309 307 306 306 307 309 309 310 310 309 311 313 315 314 316 315 315 316 317 317 318 319 318 319 318
302 302 301 301 301 301 301 302 302 302 302 301 299 295 292 296 300 301 300 300 298 296 288 286 285 291 301 300 301 302 302 304 304 304 303 302 302 302 302 301 301 301 301 297 297 295 297 297 296 303 304 304 300 297 295 296 294 299 304 306 306 309 309 310 310 309 308 310 312 312 312 313 314 315 315 315 316 314 316 316 318 317 317 319 318 318 319
302 301 301 301 301 302 302 302 302 302 301 299 296 289 287 287 295 301 300 302 301 295 290 289 286 292 292 302 302 300 301 302 304 305 304 304 304 304 304 303 303 302 297 297 296 297 297 296 296 300 303 302 299 297 297 296 293 298 303 305 305 306 307 309 311 311 310 312 312 312 312 313 315 313 313 315 316 317 318 317 315 313 316 317 318 319 318
301 301 301 301 301 302 302 302 301 301 301 297 294 292 294 296 299 301 301 300 300 294 288 285 287 291 291 296 302 304 302 302 303 305 305 305 304 305 304 303 303 304 298 296 297 297 297 298 295 301 301 303 299 297 298 296 292 296 302 305 306 307 307 308 310 311 310 311 311 311 310 311 313 312 311 315 316 317 318 317 317 317 313 316 317 318 318
301 300 300 301 301 302 302 302 301 301 299 300 301 301 300 300 300 300 300 300 297 293 293 287 284 288 288 296 301 303 301 304 305 306 304 306 304 304 301 304 304 303 304 298 295 295 300 296 296 297 303 304 295 296 297 294 298 303 304 304 305 307 307 309 309 310 309 310 310 310 309 310 312 314 314 315 315 317 318 316 316 317 318 317 317 317 317
300 300 301 301 302 302 302 301 300 299 299 297 296 297 301 302 302 301 302 300 294 294 292 287 285 287 288 299 296 301 301 298 300 301 296 304 307 304 300 303 304 297 301 298 299 297 298 296 296 297 300 295 299 295 291 299 302 303 304 304 306 307 308 308 309 309 309 309 311 311 311 312 313 314 314 314 316 316 316 317 317 316 315 316 316 316 317
300 301 302 302 302 301 299 298 301 299 296 297 298 302 303 299 300 302 302 298 289 287 288 288 289 286 287 290 290 297 302 300 298 300 295 302 306 303 304 298 297 295 298 306 298 298 296 297 303 296 294 302 295 292 293 300 301 303 304 305 307 306 306 305 307 309 309 310 310 311 311 311 312 312 312 313 314 315 315 314 315 316 314 314 315 316 316
301 302 302 302 300 298 300 300 300 298 296 296 298 301 299 300 302 304 303 301 296 290 288 289 289 287 288 285 288 294 302 299 302 302 301 301 303 306 304 300 295 300 305 298 296 301 294 303 297 292 297 293 291 296 300 302 302 303 305 305 307 306 307 308 309 309 309 310 311 311 311 311 311 311 312 313 313 313 314 313 313 314 314 313 314 315 315
301 301 301 299 298 300 296 295 299 299 298 300 299 299 299 301 304 303 300 297 298 298 291 288 286 288 291 290 293 294 300 292 300 297 302 296 295 299 299 297 295 297 295 296 296 295 298 304 296 292 293 291 294 303 304 304 304 304 304 306 306 307 307 308 308 308 308 309 309 310 310 310 310 311 311 311 312 313 313 312 313 313 312 313 314 313 314
300 299 298 296 295 290 291 293 298 298 297 297 298 299 299 298 291 291 291 290 294 295 291 291 287 292 295 292 288 300 298 295 301 294 295 297 294 296 297 295 297 294 290 292 296 304 298 295 294 293 293 300 304 303 304 306 307 307 306 306 307 307 307 307 308 308 307 306 306 308 307 308 309 310 310 309 310 311 311 312 312 314 314 314 314 313 313
299 298 296 294 291 288 290 297 299 296 298 300 299 294 291 293 291 288 288 290 290 287 292 290 289 294 293 292 295 303 299 293 293 296 292 299 292 290 295 290 294 294 291 291 294 302 292 293 293 293 292 298 301 302 305 307 307 307 307 308 308 308 308 307 308 307 307 306 307 308 309 307 309 309 310 310 311 311 311 311 312 313 314 314 314 313 314
298 295 292 291 290 292 297 298 296 297 298 294 295 293 288 293 288 286 292 287 287 290 292 288 296 296 297 294 293 294 303 297 292 292 293 295 301 291 292 292 294 290 286 287 291 300 291 288 291 291 290 296 301 305 306 307 306 306 308 308 308 308 309 308 308 309 309 308 309 309 310 310 310 311 310 310 310 309 310 311 311 312 313 312 309 314 313
297 296 295 290 295 296 297 298 300 298 294 290 291 290 289 286 290 290 289 287 288 290 296 296 297 295 298 298 297 292 302 302 301 300 295 291 299 297 291 287 292 287 286 287 293 294 293 290 290 289 291 299 304 305 307 306 305 306 308 309 308 308 308 308 308 308 307 307 307 307 308 309 309 309 310 310 310 310 309 309 310 311 311 312 312 313 313
297 296 297 299 298 297 298 297 295 291 290 293 287 284 287 288 291 290 290 285 287 292 296 296 293 294 295 298 299 300 298 304 301 296 293 290 294 291 289 290 291 286 284 292 296 293 291 286 287 288 296 303 306 306 306 305 305 306 306 308 307 307 307 307 306 306 307 306 306 306 307 307 307 308 308 309 310 310 310 309 309 310 310 311 312 312 313
297 298 297 295 295 293 293 289 292 290 283 284 283 281 286 283 287 286 288 292 297 294 293 300 298 301 302 302 299 302 298 302 295 293 291 290 294 292 289 288 286 284 288 295 291 289 287 286 286 291 300 303 305 305 306 306 306 306 307 308 307 307 307 306 305 305 306 306 306 306 306 306 306 307 308 309 309 308 308 308 309 310 310 311 311 311 311
298 297 293 291 289 290 290 281 291 287 285 285 282 279 282 282 286 288 286 289 293 293 296 293 295 295 291 300 297 295 297 298 296 295 294 295 291 288 287 285 286 291 295 290 288 285 286 288 292 297 302 305 306 306 306 305 306 306 306 306 306 306 306 305 305 305 304 305 305 305 305 306 306 306 307 307 307 307 307 308 308 308 309 310 309 309 309
291 288 289 287 285 289 286 279 290 285 280 283 285 285 285 282 286 289 288 292 293 291 295 297 296 296 292 299 298 298 295 292 295 291 288 291 288 289 287 286 290 290 287 285 286 287 288 288 298 300 301 304 305 306 306 306 306 305 305 305 305 305 305 304 303 303 303 304 303 303 304 304 304 305 306 306 306 307 307 307 307 307 308 308 308 308 308
287 286 287 282 278 284 285 281 284 282 287 288 287 290 289 290 290 290 293 294 293 294 294 295 296 295 293 297 292 292 296 295 291 291 292 291 286 285 290 292 290 286 285 286 284 283 287 293 297 298 302 305 305 305 305 306 306 306 305 303 304 304 304 304 303 303 303 303 303 303 303 304 304 304 304 306 306 306 307 307 307 307 307 307 307 307 307
287 289 288 286 281 284 288 282 284 287 290 291 292 293 292 292 293 293 293 294 293 295 294 296 296 296 293 293 293 294 294 294 289 293 294 288 286 289 291 287 284 285 283 282 283 285 290 295 298 299 301 304 305 305 305 305 305 305 304 305 304 304 304 304 304 304 304 303 302 302 303 304 304 305 305 305 305 307 306 306 307 307 307 306 306 307 307
284 288 287 280 279 284 282 285 291 291 292 293 293 293 293 293 292 292 294 295 294 294 294 294 293 295 293 299 295 291 293 293 289 290 291 289 290 287 286 285 285 287 287 285 286 292 294 297 299 299 301 303 305 304 304 304 305 305 304 304 304 303 304 304 303 303 304 304 303 303 303 303 304 304 304 305 305 305 306 306 306 306 306 307 307 307 305
289 287 284 283 285 285 286 290 289 288 291 292 292 291 291 291 291 292 294 295 294 293 294 293 292 292 289 293 291 291 288 292 286 287 290 287 284 281 283 281 283 283 286 289 292 295 297 299 300 301 301 303 305 305 305 305 305 305 305 304 304 304 304 304 303 303 304 303 303 303 303 304 304 304 305 305 304 304 305 305 306 306 306 306 305 305 305
286 285 286 285 285 286 289 290 288 286 289 289 289 289 291 290 291 293 295 293 293 293 295 295 294 291 290 290 287 289 288 291 289 289 287 285 285 286 284 281 284 285 289 294 296 298 300 301 302 301 302 304 304 305 305 305 303 304 305 305 305 305 304 304 304 305 305 303 303 303 304 304 304 304 304 304 305 305 305 304 304 304 305 305 305 304 302
288 286 286 291 286 285 287 283 284 284 286 288 289 289 290 290 290 291 295 293 292 292 291 289 291 290 289 288 287 283 287 292 288 287 287 286 289 287 285 284 288 293 294 297 299 300 301 302 302 302 302 304 305 306 306 305 305 305 305 305 305 305 304 304 304 304 305 304 304 299 304 304 304 305 305 305 304 304 304 303 303 304 304 304 304 304 303
285 283 284 288 290 289 288 289 289 288 288 289 289 291 291 290 292 293 295 292 291 288 288 291 289 287 286 284 286 289 291 289 286 287 285 288 289 286 287 290 293 294 295 296 298 300 301 303 304 303 303 304 304 306 306 306 305 305 304 304 305 304 303 302 303 305 304 304 305 304 305 305 306 305 305 304 303 302 302 302 303 304 304 304 304 304 304
Wind_Speed
19 19 20 21 23 23 26 26 27 25 27 16 11 10 5 3 4 5 2 1 3 6 5 5 7 7 7 10 11 10 9 7 11 13 5 3 4 1 3 1 1 3 1 4 5 7 4 8 8 8 8 7 11 13 20 15 16 11 8 7 10 2 3 12 11 10 10 12 14 13 14 14 14 13 12 13 14 12 8 4 8 7 6 5 3 3 4
19 18 19 20 22 24 25 24 24 24 23 15 11 7 5 5 4 2 5 3 3 6 6 7 9 9 12 12 11 8 7 9 12 11 12 6 1 1 1 2 4 2 2 4 5 5 3 8 8 8 9 5 12 16 18 17 11 10 8 7 11 5 4 9 11 10 12 10 10 12 14 15 12 13 14 12 13 15 13 3 1 4 9 7 6 6 4
18 17 19 20 21 22 23 24 23 24 24 19 8 6 6 6 4 4 3 3 4 6 5 6 7 11 13 13 14 14 8 6 10 10 11 8 6 1 0 2 3 1 3 4 7 6 7 2 11 6 8 7 12 17 19 15 11 8 5 2 5 4 4 10 12 14 14 14 16 19 18 18 12 13 15 14 18 20 13 8 6 3 6 1 2 6 9
17 17 18 19 20 22 23 23 23 24 24 22 8 5 6 5 4 4 4 3 3 2 4 2 7 10 11 12 9 11 13 13 11 9 9 6 10 6 1 3 4 2 2 3 3 6 10 7 3 5 8 8 10 14 19 15 9 9 4 6 4 3 5 8 11 12 12 12 12 13 13 13 15 18 18 16 16 16 14 7 5 4 5 4 7 4 6
16 17 18 18 18 20 22 23 22 23 24 23 9 4 2 5 3 5 7 6 4 7 1 7 8 9 12 8 9 8 14 14 9 9 6 8 10 8 3 5 4 5 4 2 3 5 5 1 6 5 9 10 10 17 17 14 8 8 6 7 4 5 6 9 12 14 9 8 11 14 16 16 15 17 18 16 17 17 18 9 6 4 5 5 5 2 1
16 17 18 17 18 20 22 23 23 23 23 27 9 4 5 2 3 2 1 4 6 9 5 11 12 14 12 7 7 10 12 14 11 11 5 11 8 7 1 1 5 4 4 4 2 1 0 3 2 2 6 10 12 13 15 12 10 8 7 6 5 4 5 9 8 10 12 11 10 11 13 13 13 15 15 16 17 17 17 15 11 6 6 6 8 6 4
16 17 17 17 18 18 20 23 23 22 25 22 7 5 5 4 2 2 5 4 6 7 12 13 11 13 10 7 8 13 13 12 10 6 10 10 8 10 5 9 14 12 6 4 3 6 2 2 3 2 2 13 14 12 11 9 11 10 7 6 4 3 5 6 9 10 10 8 13 16 17 15 14 13 15 16 16 15 17 17 15 12 9 6 5 6 8
15 16 17 17 17 18 19 21 20 20 23 14 7 9 5 5 5 4 8 6 10 9 8 9 9 8 8 6 9 10 13 14 14 9 3 6 8 8 8 13 13 12 9 5 3 1 3 5 3 4 5 14 9 9 3 6 9 8 6 5 4 6 3 1 5 9 11 10 9 15 17 17 16 14 14 14 14 14 15 14 15 12 11 8 6 6 5
15 15 16 17 17 17 18 19 20 19 19 8 8 7 6 3 4 6 8 10 5 7 7 8 9 7 8 8 10 12 13 12 14 12 7 8 6 10 10 10 12 10 7 3 4 1 5 7 5 5 7 4 4 2 4 2 9 10 8 6 5 6 3 3 5 6 10 13 11 13 14 15 15 16 17 17 17 16 16 15 14 12 12 10 7 7 2
13 14 16 16 16 16 16 17 18 17 15 8 6 6 6 5 4 5 4 5 6 8 7 6 8 7 9 9 14 10 16 15 12 9 4 6 8 9 10 11 8 7 4 7 9 9 8 8 5 4 1 3 3 2 4 3 4 6 8 6 6 5 5 4 4 7 8 14 13 13 14 12 13 15 19 19 15 13 13 16 16 15 10 8 5 3 6
11 12 14 16 15 15 15 15 17 16 11 9 7 6 7 6 6 5 4 6 4 5 7 6 8 7 11 13 15 15 14 15 12 6 5 7 9 10 12 11 7 7 4 7 9 10 9 6 3 2 2 0 2 2 1 6 8 8 6 4 6 8 8 5 6 5 9 15 14 12 11 10 10 8 16 17 17 17 16 16 17 12 8 8 2 5 3
10 11 13 14 14 14 14 13 14 15 12 8 7 5 6 7 6 5 4 5 6 6 6 5 9 11 15 16 14 15 15 15 14 9 9 10 16 14 11 10 9 5 10 8 6 3 2 4 6 1 2 1 4 5 7 9 10 10 9 9 7 7 5 6 6 5 9 12 12 10 10 8 6 3 6 13 16 17 16 15 16 13 13 12 9 6 4
10 10 10 11 13 13 14 13 12 12 11 8 6 6 6 7 5 4 4 4 7 9 7 8 9 9 11 15 16 14 14 13 12 11 8 9 12 11 9 10 11 11 11 9 6 4 5 8 7 8 5 2 7 11 15 15 15 15 13 12 9 5 5 4 5 5 8 9 8 9 6 7 6 5 6 6 3 10 13 12 8 4 8 7 6 5 2
9 9 9 9 10 13 13 12 11 10 10 9 6 5 5 6 6 4 4 5 8 7 9 11 6 11 15 15 15 18 14 11 11 4 6 8 9 10 11 10 11 9 6 5 3 3 7 3 5 2 2 5 7 9 14 15 13 12 13 14 11 10 6 6 4 5 9 9 9 5 8 9 9 7 7 9 11 10 10 7 9 5 5 5 5 2 1
9 9 9 9 9 11 13 12 11 10 9 9 7 5 5 5 6 5 4 4 7 11 8 5 11 13 14 12 14 14 12 13 13 9 11 6 5 8 10 12 10 7 3 4 2 2 4 3 3 1 1 4 4 3 4 4 6 6 6 8 10 9 9 5 5 2 6 10 9 6 7 5 5 7 7 4 3 1 5 6 6 5 3 2 4 4 4
9 9 9 9 9 9 12 11 11 10 8 9 7 5 4 5 5 4 4 4 5 6 4 7 8 10 11 10 11 12 12 11 12 11 7 7 10 14 11 13 9 6 2 5 3 1 4 3 2 1 1 2 5 4 4 8 5 3 3 4 8 9 10 8 4 6 8 7 7 7 6 5 7 8 6 4 2 1 2 6 7 6 4 3 3 4 6
11 10 10 10 9 8 9 11 11 10 9 7 7 5 5 4 4 4 5 3 2 8 12 10 7 9 10 7 7 7 10 9 12 9 9 11 15 13 13 14 7 9 7 3 1 2 3 3 3 0 2 3 5 2 7 6 8 8 12 4 8 8 5 5 5 7 5 7 8 7 2 3 4 6 5 3 4 4 7 9 5 6 5 3 5 6 8
12 12 10 9 9 10 9 10 11 10 10 7 7 7 5 4 4 5 4 4 6 7 4 3 9 7 7 8 9 9 8 7 7 7 7 11 9 12 13 11 12 9 12 2 3 3 3 3 3 3 4 4 2 4 4 8 7 7 8 10 3 1 1 2 9 7 7 7 6 5 5 5 6 5 4 3 5 7 9 6 4 5 4 4 5 7 8
12 12 12 9 8 9 9 9 11 10 10 10 8 6 4 5 4 4 4 5 4 7 4 8 9 10 10 8 8 8 6 7 8 7 9 8 8 15 16 6 9 8 12 5 6 3 2 4 2 3 3 3 5 3 6 5 6 7 8 8 5 5 2 2 2 8 8 5 6 6 6 5 5 3 2 4 7 7 4 4 2 3 6 5 6 9 9
11 12 13 11 8 9 9 8 10 10 10 10 7 7 7 5 4 3 4 5 5 11 14 14 9 11 7 9 8 6 5 5 3 5 8 8 11 17 6 2 10 9 8 7 7 5 4 4 3 2 1 4 3 2 2 1 1 7 6 7 4 5 2 4 3 1 3 2 5 7 6 2 6 5 5 2 2 6 5 5 6 5 8 8 8 9 8
11 12 14 11 8 9 9 8 9 10 11 10 9 7 8 3 3 4 4 6 7 11 8 3 2 9 10 12 11 12 10 9 7 7 8 9 10 9 7 6 9 7 7 6 6 5 4 3 4 2 1 3 3 3 3 3 2 1 7 6 6 9 1 3 3 5 3 6 4 2 2 5 7 6 4 7 8 5 4 5 7 6 6 7 6 7 8
11 13 14 10 8 9 9 9 9 10 11 11 10 7 7 5 5 5 5 5 8 10 9 12 15 17 16 15 15 13 14 14 12 8 8 7 6 5 3 6 6 6 5 5 3 1 4 3 2 2 2 2 1 1 3 2 4 7 2 5 2 10 5 4 4 4 3 4 5 6 5 5 6 8 11 10 8 6 7 8 6 7 7 6 7 7 6
12 12 10 8 9 10 9 10 10 9 10 10 9 7 8 7 6 6 6 8 8 12 15 16 13 14 14 15 16 15 15 13 11 9 8 6 5 3 4 5 5 5 4 5 4 4 4 4 2 3 2 2 2 2 3 2 2 5 4 5 3 6 5 4 3 7 4 8 6 4 7 8 9 8 7 8 7 5 4 7 8 7 7 7 8 7 6
12 11 7 7 9 11 10 11 11 10 9 9 8 8 8 7 7 7 6 6 5 10 8 5 3 3 1 2 2 7 11 11 12 10 7 8 5 2 2 1 5 3 2 5 4 5 5 3 3 3 2 4 5 2 1 4 3 4 4 2 1 1 7 4 3 6 1 6 6 8 7 6 7 7 7 7 8 8 8 8 7 7 7 7 6 6 6
12 10 9 10 13 12 11 11 11 12 10 10 9 8 7 7 5 4 6 5 4 4 6 7 8 7 5 5 7 7 7 7 7 9 10 10 11 8 5 5 5 5 8 7 6 6 2 2 1 1 2 4 5 2 2 2 4 3 1 3 5 3 6 3 6 7 5 5 5 5 4 5 7 6 6 8 8 9 9 7 7 7 6 6 5 5 6
11 10 10 9 11 13 12 11 11 12 9 9 10 8 7 8 6 6 6 7 6 4 5 6 4 1 6 9 9 6 1 5 8 10 12 13 14 12 10 8 7 5 7 7 6 4 3 2 1 1 3 2 4 3 3 4 2 2 2 3 2 4 7 2 4 2 1 2 3 4 5 9 9 8 8 7 6 6 8 9 9 8 8 8 7 6 6
9 10 10 10 11 12 12 12 12 11 9 9 9 8 8 8 7 7 7 5 5 4 5 6 9 11 9 15 10 4 5 6 7 8 10 12 12 10 9 9 8 7 6 6 4 3 2 1 2 1 3 3 3 3 4 1 1 0 1 4 3 3 3 5 1 3 3 2 3 7 2 3 5 8 9 8 8 7 8 9 9 8 8 7 9 8 7
10 10 11 11 12 12 13 12 11 8 7 10 9 8 8 8 5 4 4 6 5 4 7 10 10 13 18 13 4 6 6 5 7 7 7 8 9 8 8 8 7 6 4 4 2 2 2 2 1 1 1 3 5 1 1 2 3 3 3 4 4 3 3 2 2 0 1 2 4 3 2 3 5 6 7 7 8 8 9 10 9 9 8 8 8 9 9
10 11 11 11 11 12 11 11 10 7 8 10 9 8 5 1 3 1 3 4 4 4 6 11 12 10 4 6 10 6 2 3 4 5 6 6 7 7 7 7 6 4 4 3 3 3 3 2 1 3 2 4 4 3 3 2 1 1 5 3 3 4 3 4 4 2 4 4 3 2 2 2 4 5 5 5 6 6 6 8 8 8 8 8 9 9 8
11 11 12 12 12 12 12 9 9 7 7 8 7 6 3 3 1 1 3 4 3 2 4 7 6 2 8 6 4 5 7 3 2 3 5 5 5 6 6 6 6 6 4 3 2 3 2 3 1 2 1 2 3 2 2 0 2 3 4 3 2 1 2 2 3 4 4 4 3 3 3 3 2 2 2 3 5 6 6 7 7 7 8 7 8 8 8
11 13 13 13 12 12 13 12 10 6 7 6 5 3 2 1 4 2 4 2 2 4 3 3 9 8 7 4 5 7 8 6 1 1 4 4 3 4 4 4 4 5 3 3 2 3 3 2 2 2 3 2 2 2 2 2 1 3 4 2 2 2 2 2 3 3 4 3 3 2 2 2 1 2 3 4 5 4 3 6 6 6 7 7 8 7 7
12 13 13 12 13 12 11 10 9 7 7 7 6 5 3 5 3 3 1 3 2 3 2 6 6 2 4 4 2 5 7 5 3 4 3 4 3 3 4 5 3 4 3 2 3 2 2 1 2 3 3 4 2 3 3 3 2 1 3 2 1 1 1 2 2 2 2 3 3 2 2 2 2 2 3 5 4 4 5 5 5 6 4 5 6 6 6
12 12 12 12 14 14 12 12 11 8 9 9 12 12 13 15 14 10 6 5 5 3 2 3 5 5 5 5 8 2 4 5 5 4 2 4 1 3 3 4 4 4 4 2 2 2 2 1 1 3 2 2 2 2 4 3 3 2 1 2 2 1 2 2 2 2 2 2 3 3 1 2 2 2 2 2 2 4 4 4 5 4 4 5 6 6 6
11 11 13 14 15 14 14 13 10 8 6 5 5 5 3 4 7 7 7 6 3 3 1 2 4 6 7 7 6 4 6 6 2 3 1 4 1 3 0 2 3 2 5 4 0 1 2 1 3 1 2 2 2 2 3 2 1 1 2 2 1 1 2 3 3 3 1 1 2 3 3 3 2 1 1 2 3 3 2 2 3 4 5 5 6 5 5
11 12 13 14 14 12 11 7 5 3 2 2 2 2 5 2 6 4 7 6 2 2 2 2 2 6 6 3 3 3 5 5 2 3 3 3 3 4 1 2 2 2 3 3 3 3 2 1 1 2 1 3 2 2 3 2 3 2 2 2 1 2 3 4 4 3 1 0 2 2 1 2 3 3 3 3 4 3 3 3 3 4 5 4 5 5 4
10 12 13 13 11 6 2 3 4 2 3 2 3 6 6 9 6 5 8 7 4 3 2 2 1 4 5 6 5 2 7 6 2 3 0 1 4 2 3 2 3 2 3 3 2 2 2 2 1 1 2 2 2 2 2 2 0 1 1 1 0 2 1 2 1 1 1 0 0 0 1 3 3 1 1 2 3 3 2 3 4 3 4 5 5 5 5
12 12 13 12 6 4 2 0 1 2 2 3 8 12 11 6 2 2 4 4 4 2 4 2 4 6 4 5 3 3 6 4 4 4 3 2 1 1 2 2 2 1 2 3 3 2 2 1 2 3 3 2 1 3 3 1 1 1 1 1 1 1 2 1 1 1 2 3 2 2 2 3 2 1 2 2 2 1 2 3 2 2 3 5 5 4 5
10 11 7 4 3 2 1 1 2 3 7 7 6 3 3 3 1 1 1 2 2 3 3 4 6 6 4 5 4 5 5 3 4 3 1 1 2 2 0 2 1 1 2 0 2 2 1 2 2 2 2 2 1 2 2 2 3 3 2 2 2 2 1 1 1 2 2 4 5 4 4 3 2 1 1 3 2 2 2 3 2 2 2 3 4 4 4
9 6 4 3 2 1 1 3 3 6 6 2 2 1 2 1 1 2 2 1 1 3 3 5 5 4 5 6 8 4 4 5 6 3 2 4 2 0 1 2 2 1 2 2 2 2 2 2 2 2 2 3 2 4 4 4 3 2 3 3 3 3 2 3 3 4 4 4 5 6 5 2 1 3 2 3 4 3 3 2 2 3 2 2 3 2 3
4 4 1 2 1 2 2 4 3 4 3 2 1 2 1 1 2 1 2 2 2 2 2 3 4 5 5 6 7 5 2 4 4 5 4 4 1 2 1 2 1 2 3 2 2 2 2 2 1 2 1 2 4 5 5 5 4 3 2 3 4 4 4 5 6 5 6 6 6 6 6 6 5 4 4 4 4 4 3 3 3 3 3 4 4 1 2
2 2 2 1 3 2 2 4 2 3 2 2 1 1 1 2 2 1 1 2 2 0 3 4 2 4 4 5 5 5 2 2 4 3 3 3 1 2 2 1 1 2 2 1 2 1 1 2 2 2 2 3 5 6 6 5 5 4 4 5 6 6 6 6 6 5 4 4 5 5 6 6 6 6 5 5 4 4 3 2 3 4 3 3 2 3 2
3 4 4 4 4 3 3 2 1 2 1 1 1 2 2 1 0 2 2 2 1 0 3 3 4 4 5 3 5 4 3 1 3 2 2 2 1 2 2 1 1 2 1 2 1 1 1 2 2 0 4 4 6 6 6 6 5 5 5 5 5 5 6 6 6 6 5 5 4 4 5 5 5 5 5 4 4 4 3 3 4 3 3 3 2 2 2
2 5 4 3 2 2 1 2 2 1 1 2 2 2 2 2 3 2 1 2 0 2 1 2 4 5 4 3 4 6 2 1 2 1 2 2 0 1 2 1 1 2 0 1 1 1 3 2 2 2 2 4 5 6 5 5 5 5 5 4 4 5 5 6 6 5 5 4 5 4 4 4 4 4 3 2 4 4 4 4 3 3 3 2 3 3 3
3 3 3 1 1 1 1 1 2 1 2 2 2 2 3 3 2 2 2 1 1 2 3 5 5 6 4 0 5 1 2 3 2 2 3 1 2 1 1 2 1 1 1 2 1 3 2 2 4 5 4 4 4 4 5 5 5 6 5 5 5 6 6 5 3 2 3 2 3 2 1 1 1 2 2 1 0 1 2 3 3 2 2 0 2 2 3
3 2 1 1 1 1 1 1 2 2 4 3 3 3 1 3 0 2 2 2 3 4 4 4 5 6 7 5 2 2 1 1 1 2 2 1 2 2 2 2 1 1 2 3 2 2 1 1 4 3 3 4 5 5 4 5 5 5 6 6 6 6 4 3 2 1 1 1 2 2 1 1 0 2 2 2 2 1 1 1 1 0 0 0 1 1 2
2 1 1 2 2 2 2 2 2 3 2 1 2 3 4 2 3 3 3 3 4 4 4 5 6 6 7 2 2 2 0 2 2 1 2 2 3 3 0 1 1 3 2 3 2 2 2 4 3 3 4 1 5 5 5 4 4 4 6 5 5 5 4 2 1 2 2 1 2 2 1 1 1 0 1 2 2 2 2 2 1 1 1 1 1 2 2
1 1 1 1 2 2 1 3 3 2 1 1 2 2 2 3 3 4 3 3 4 4 5 5 6 5 6 4 2 2 2 1 2 1 1 3 3 1 0 2 2 2 2 2 1 1 3 4 4 5 4 1 3 4 5 5 4 4 3 4 6 6 4 3 2 2 3 2 1 3 3 2 2 1 1 1 2 2 2 1 2 1 0 0 1 1 1
2 0 1 2 3 2 4 3 1 2 2 3 2 2 2 2 4 3 2 0 3 4 5 6 6 4 5 3 2 4 3 0 1 1 0 2 3 3 2 2 3 2 1 2 2 4 4 4 5 4 4 1 2 5 5 5 5 5 4 5 6 6 6 4 2 2 2 2 0 2 2 1 1 1 2 2 2 3 2 2 2 1 0 1 1 0 1
1 1 2 2 1 1 1 1 2 4 2 2 2 3 3 4 4 3 1 1 3 4 4 5 3 3 4 1 3 3 2 2 3 1 0 1 2 2 2 2 2 2 2 2 4 6 6 5 4 4 2 2 4 5 5 5 5 5 5 5 6 6 7 5 4 2 1 1 1 1 2 1 1 0 0 1 2 3 3 3 2 2 1 2 1 1 2
2 2 1 2 2 3 3 2 3 3 3 2 3 3 1 3 4 1 2 3 3 5 4 2 2 2 2 2 2 2 2 1 1 1 2 3 3 3 2 4 1 2 3 6 7 7 7 6 5 4 1 2 5 5 5 5 3 4 4 4 4 6 6 6 5 3 2 3 2 1 2 2 1 1 1 1 2 3 2 3 2 2 2 2 2 2 3
0 2 3 3 4 2 2 2 2 2 2 1 1 2 2 4 3 2 2 4 5 4 3 4 1 2 3 2 2 3 0 1 3 4 3 2 0 1 2 3 3 5 6 7 8 7 7 6 5 4 2 2 5 5 4 4 5 4 3 3 3 5 5 5 5 5 5 3 3 5 4 3 2 3 3 2 1 0 1 2 2 2 2 2 2 2 3
2 3 2 2 4 5 5 5 5 6 6 5 5 3 2 4 2 2 2 4 4 5 4 1 2 2 3 4 2 2 2 2 3 2 4 1 0 1 1 3 6 7 8 8 8 8 7 5 4 5 4 3 3 4 4 4 4 4 4 3 4 5 5 3 4 5 6 3 4 4 3 4 4 3 2 2 2 1 1 1 1 1 2 2 2 2 3
Wind_Direction
349 350 353 357 -0 359 352 349 348 349 347 352 349 326 308 335 345 61 102 73 242 265 308 3 353 348 330 314 285 275 286 272 315 321 344 330 149 242 235 316 302 174 276 246 240 230 211 191 190 193 201 194 214 164 184 185 175 183 177 200 174 177 204 161 167 159 170 180 164 200 201 185 205 213 220 203 203 205 218 185 154 193 163 193 120 198 146
349 352 352 355 359 359 355 350 347 346 349 345 333 325 335 325 312 357 135 212 259 305 3 328 340 332 327 324 292 284 273 303 318 326 329 347 62 243 321 294 240 317 235 273 249 193 217 189 213 208 202 188 188 173 182 182 175 188 172 191 157 201 202 167 151 164 168 162 162 192 204 192 206 199 204 210 206 202 229 145 341 217 178 205 183 191 179
351 352 354 356 359 1 358 353 349 345 344 344 330 323 325 298 233 248 303 193 261 357 2 332 317 323 329 328 330 345 340 333 318 316 321 341 3 320 236 247 327 316 34 281 280 240 243 246 206 312 190 150 171 169 179 179 169 190 157 317 107 312 189 173 166 160 162 174 181 186 184 195 196 205 194 204 203 197 202 207 187 195 126 329 198 128 87
353 353 355 359 359 1 360 355 350 346 342 341 336 339 307 8 339 360 343 358 285 6 98 324 330 315 328 323 335 338 337 338 334 337 318 351 349 359 213 207 200 288 172 244 252 257 207 222 154 194 184 142 174 170 178 180 168 173 174 195 165 201 200 200 182 180 184 189 182 179 184 182 196 194 196 191 207 195 210 211 197 191 152 190 225 356 76
354 354 356 0 2 360 1 358 351 349 340 336 332 308 332 294 8 342 339 313 198 354 1 4 343 319 325 316 332 329 336 332 329 13 315 359 342 323 350 354 24 4 352 2 288 348 317 279 320 257 145 155 154 164 178 182 186 156 177 227 193 222 189 203 203 209 209 178 194 171 188 190 196 191 194 192 196 198 210 207 199 197 182 193 158 91 298
354 354 357 0 0 1 2 2 355 349 342 328 303 327 2 340 50 4 341 306 325 338 0 349 326 318 331 310 311 324 331 341 343 326 308 322 325 338 126 348 19 324 329 299 308 10 107 21 320 181 160 139 148 160 179 191 171 195 196 200 223 224 193 178 213 213 222 182 167 177 183 190 190 194 190 193 194 200 211 216 227 214 223 110 65 44 14
354 354 358 1 1 3 2 3 0 352 340 323 17 8 44 31 338 237 3 300 317 307 301 308 306 313 331 322 332 336 335 335 339 322 311 319 338 13 322 337 349 343 332 318 60 357 182 82 23 46 152 159 152 156 164 194 178 199 228 216 199 264 227 214 198 205 198 203 183 177 180 182 188 188 190 191 195 200 210 217 220 236 242 293 356 1 326
354 356 358 2 3 3 4 6 4 358 338 331 43 40 13 31 353 345 333 295 283 295 309 315 321 323 351 346 351 336 329 336 337 335 315 308 315 336 329 332 335 332 334 12 54 261 319 339 342 14 329 156 164 134 132 160 197 218 225 209 185 250 144 128 212 203 194 195 189 175 183 178 186 186 185 186 192 198 211 222 220 230 255 271 282 307 306
355 356 360 0 1 5 8 10 7 3 344 25 23 48 31 331 332 323 312 309 323 330 337 337 334 333 4 343 334 331 331 334 334 308 259 254 294 328 321 321 317 318 316 329 50 46 324 329 331 323 328 140 68 86 176 224 190 220 239 231 221 222 250 250 244 206 179 187 196 176 184 186 187 185 190 188 186 194 200 221 220 230 232 233 258 259 238
354 356 359 0 359 3 8 10 12 6 348 18 10 23 9 346 332 307 296 296 304 324 337 329 342 5 357 338 326 333 319 323 337 320 230 248 274 286 313 310 299 297 300 16 347 329 308 305 298 310 269 278 326 20 29 304 250 219 225 229 248 229 234 240 207 199 164 175 191 179 175 183 196 198 192 189 188 195 199 226 229 234 239 237 236 258 58
350 354 360 358 356 2 7 9 12 11 357 17 1 9 6 2 334 327 312 297 288 347 319 342 351 3 336 339 327 331 327 334 338 332 315 320 309 329 328 323 333 321 12 323 318 302 298 292 282 178 240 98 292 319 280 257 257 255 263 250 252 255 247 244 219 195 156 168 182 176 178 190 199 182 191 191 187 191 194 213 224 227 228 235 340 3 43
341 352 358 358 353 359 7 7 8 14 10 1 349 357 6 341 330 320 333 324 315 328 327 345 350 332 339 339 335 330 333 336 329 318 289 291 304 320 328 333 334 336 355 323 321 319 140 118 127 147 134 146 251 259 263 266 255 239 243 254 265 262 239 242 220 178 153 159 168 177 191 189 74 52 169 195 196 192 199 212 228 231 234 244 260 278 332
336 343 355 360 352 352 5 5 8 11 7 0 349 0 355 347 331 343 327 308 303 334 332 325 320 326 334 332 333 328 329 324 321 308 299 314 321 331 355 345 342 340 330 328 318 200 140 111 106 110 108 180 251 261 257 248 248 246 244 237 240 240 230 228 225 163 139 158 173 169 176 87 100 98 117 94 157 200 209 213 220 254 258 265 260 271 9
329 334 343 352 354 346 357 3 5 7 359 355 357 358 349 352 350 343 342 324 305 314 322 299 313 340 340 339 337 329 328 336 336 300 314 344 315 327 338 348 344 333 347 329 285 191 109 98 85 122 49 335 287 273 258 251 251 253 238 221 214 233 232 228 161 159 154 166 166 141 122 123 120 137 155 174 191 188 196 205 220 217 252 276 273 262 97
324 328 332 337 348 346 348 2 357 355 2 343 356 345 355 8 351 337 313 296 300 302 286 327 336 330 330 334 346 339 342 343 344 341 309 277 287 332 334 342 347 347 349 273 178 213 103 111 114 142 137 233 277 305 328 4 314 239 251 221 204 215 219 207 182 178 170 162 144 141 166 153 130 84 112 69 24 282 190 233 201 168 195 237 257 252 145
323 324 319 327 336 342 340 350 357 345 355 339 348 352 352 9 329 319 320 307 309 313 53 357 327 319 325 319 335 345 347 338 348 320 330 13 358 344 350 347 342 349 43 269 281 96 113 122 131 220 67 321 319 313 342 330 347 93 135 163 189 203 241 277 245 149 171 162 153 157 136 82 91 104 102 89 73 153 117 217 198 140 163 191 227 190 149
321 319 315 317 324 326 335 339 349 353 342 351 346 346 338 357 337 325 318 302 260 259 303 323 320 308 304 320 338 348 354 341 343 349 337 350 343 341 339 341 352 12 2 273 267 184 139 126 92 256 160 358 353 350 295 352 349 354 4 119 169 188 211 227 189 157 165 162 158 129 63 111 89 88 79 90 125 145 174 208 168 108 139 159 194 168 147
322 324 318 311 320 322 331 339 338 351 339 333 322 339 325 350 335 315 282 288 300 285 268 310 332 324 337 341 312 321 319 320 333 322 290 291 334 360 334 344 359 21 1 30 348 115 56 47 50 5 24 82 269 285 4 327 355 1 341 328 14 62 115 203 155 161 163 184 118 115 103 78 57 42 45 112 183 183 184 202 88 50 88 139 170 143 140
320 323 323 313 313 318 331 336 332 346 343 333 321 320 328 341 328 292 305 286 274 269 286 322 308 282 285 297 275 287 288 297 306 322 335 359 22 337 315 277 341 0 7 22 26 36 51 87 94 25 332 35 12 18 311 339 359 338 347 14 18 18 356 95 129 160 159 143 141 109 85 58 348 34 44 132 154 179 168 70 331 26 85 110 138 133 139
318 318 321 320 308 310 328 334 323 341 347 336 323 324 315 316 311 315 302 301 276 275 285 279 264 268 285 293 300 303 324 291 302 311 345 340 342 336 315 82 22 358 13 10 54 27 27 39 20 304 329 4 49 296 260 46 58 353 348 351 350 358 321 119 75 56 91 162 130 143 132 82 4 329 136 192 254 82 92 94 55 47 79 109 118 129 143
315 314 316 320 305 309 324 324 316 332 338 336 327 322 316 332 290 280 269 281 292 297 300 165 243 273 282 277 271 270 272 274 308 320 327 317 329 335 28 8 354 360 10 359 15 24 3 19 17 3 336 294 10 274 353 321 292 48 341 356 27 2 313 67 67 0 176 151 124 87 32 11 12 340 88 50 51 58 61 82 78 54 76 95 105 114 135
311 311 318 319 309 309 315 309 311 324 334 335 317 315 304 317 305 296 287 282 270 253 266 298 301 288 277 268 266 259 255 256 264 280 301 308 319 344 322 305 353 15 22 333 14 34 31 348 330 12 18 5 198 326 342 324 30 337 24 337 58 14 18 348 28 32 9 59 83 82 50 43 39 45 68 68 59 56 55 63 71 79 65 68 93 109 119
307 311 321 323 315 310 310 304 307 319 329 332 319 324 311 312 307 311 301 286 271 272 277 278 278 272 264 258 249 244 243 245 259 257 248 273 300 286 339 348 14 6 23 19 10 329 343 331 24 337 299 46 7 348 168 350 40 342 14 29 39 339 326 313 287 65 56 78 66 79 70 58 73 67 62 83 83 65 58 76 81 62 59 63 84 106 123
301 306 315 323 319 311 308 302 303 308 321 324 323 319 311 310 304 309 301 291 289 307 294 205 276 299 332 326 279 221 225 236 233 237 233 238 267 288 148 87 351 292 44 32 11 326 343 318 0 307 347 31 298 306 39 87 42 324 316 35 99 68 351 330 46 359 265 98 50 48 48 48 50 78 96 90 77 69 68 77 78 76 72 74 68 82 94
300 308 309 320 316 308 304 304 304 303 314 320 311 303 298 292 289 305 304 313 319 335 307 300 282 268 308 302 285 266 227 224 217 217 212 214 231 262 329 24 343 329 333 335 333 310 275 299 246 236 1 59 313 50 12 319 106 343 357 20 330 86 348 350 19 32 19 84 40 51 75 79 59 50 57 54 51 67 80 87 89 84 77 79 81 89 91
307 307 308 317 308 307 303 302 304 302 305 314 306 308 308 296 297 288 279 270 262 276 294 306 301 331 291 308 315 321 311 204 206 200 209 213 221 242 276 301 292 290 301 307 305 301 312 269 295 301 319 74 337 327 17 22 1 352 347 47 354 293 294 38 355 45 70 80 65 51 93 69 59 54 49 43 33 37 65 84 96 110 106 95 75 59 69
291 294 304 306 301 300 301 306 302 300 304 311 306 308 296 295 287 274 260 244 283 258 214 267 301 304 337 316 307 276 217 218 213 213 213 218 225 232 247 262 275 288 292 302 301 307 276 279 281 325 346 8 335 313 316 273 333 31 94 59 329 260 46 65 144 162 143 69 38 350 50 74 65 37 24 21 20 19 45 60 64 65 73 90 107 104 88
280 292 301 300 302 301 303 305 302 304 311 303 293 300 300 291 299 288 243 222 224 300 313 301 302 307 312 276 266 279 278 237 224 221 223 218 218 226 238 247 257 272 285 301 292 261 308 277 139 35 273 315 291 169 243 273 250 218 85 52 359 23 27 299 165 257 158 70 38 32 345 42 44 27 18 17 15 13 35 41 42 46 47 45 58 80 90
288 300 301 301 303 306 305 308 312 311 304 293 311 307 297 273 327 190 209 200 238 287 285 286 282 272 304 358 317 290 229 263 277 236 222 217 206 219 225 231 237 247 259 276 275 290 287 291 334 300 354 19 301 325 299 228 208 113 53 64 53 36 359 3 47 120 89 36 44 7 342 63 54 20 14 18 15 1 35 50 47 48 46 47 53 50 56
294 300 303 305 304 297 296 300 307 291 295 313 318 301 262 155 53 84 160 174 202 284 305 326 319 304 340 309 297 313 312 297 263 234 209 201 204 206 217 216 226 234 253 268 309 296 333 302 280 255 181 202 288 318 290 313 211 91 84 89 55 355 350 338 347 345 42 13 356 343 330 323 1 4 34 33 28 12 30 41 35 47 52 44 55 56 47
295 302 302 299 294 296 298 298 297 306 301 293 302 292 270 234 116 125 149 201 228 286 291 260 270 297 293 237 266 302 319 325 307 198 180 188 210 202 199 202 224 220 234 245 251 275 306 251 220 183 158 189 274 285 326 313 216 142 122 78 53 11 354 24 347 325 325 337 347 316 280 287 308 201 127 51 40 26 57 76 66 48 34 56 58 54 54
298 302 299 295 295 299 301 299 301 294 284 278 255 257 349 15 34 98 155 262 307 269 298 310 307 285 313 292 292 307 298 306 259 201 167 184 188 185 191 216 236 206 238 272 277 290 246 304 284 267 265 133 217 288 271 268 262 89 113 172 133 340 339 306 292 313 306 315 287 213 191 161 208 342 41 47 44 51 65 83 86 99 82 73 74 66 61
299 299 296 293 293 296 298 298 296 286 272 294 325 314 295 286 276 266 260 268 267 268 284 290 289 304 283 336 322 296 316 261 207 232 177 178 239 169 210 208 231 243 165 231 237 258 40 281 266 256 128 109 246 262 270 256 270 13 346 312 294 259 272 285 283 278 297 293 291 294 92 128 101 45 36 45 68 74 96 109 117 126 122 116 101 94 85
298 298 294 292 294 296 298 302 300 286 256 250 232 222 206 218 253 231 233 215 253 277 275 273 299 309 296 307 281 94 356 340 312 347 291 145 166 210 229 209 201 255 186 229 57 249 223 248 244 247 128 207 227 277 259 236 188 262 287 290 278 249 220 223 214 216 202 285 288 284 332 1 352 9 176 161 115 103 96 114 150 148 127 113 101 93 96
292 294 296 296 298 306 303 284 225 205 248 227 249 125 87 86 308 289 212 184 197 207 219 230 238 310 319 317 297 81 358 306 324 32 318 107 172 267 89 248 148 248 132 228 256 255 249 236 26 238 195 120 194 234 242 193 164 212 253 242 192 233 219 226 198 196 148 79 241 237 256 232 226 207 165 154 147 145 163 151 157 179 151 121 117 113 107
302 301 296 300 303 292 235 219 227 185 173 146 132 71 356 314 302 252 213 207 251 319 289 303 273 291 314 314 333 15 342 289 268 280 278 297 197 189 251 289 250 151 99 195 268 170 238 94 239 191 117 228 223 237 83 70 123 178 288 306 17 269 301 331 38 162 180 96 344 338 217 211 224 171 162 149 149 154 154 161 152 164 134 132 120 117 113
297 297 296 284 257 202 247 255 177 244 25 354 329 310 305 292 182 103 148 189 220 226 280 303 284 266 274 300 302 292 317 315 351 309 165 224 339 127 225 225 261 93 223 216 219 232 116 109 261 268 226 256 35 67 83 97 107 100 98 29 348 311 269 243 354 289 211 187 187 192 196 199 181 176 183 156 125 118 181 143 105 142 156 137 132 122 103
302 293 280 249 218 228 196 196 194 29 326 298 289 265 161 194 216 164 172 217 206 206 225 231 255 277 280 265 269 9 321 302 340 321 269 62 280 169 207 263 16 293 278 306 80 42 108 206 234 276 283 256 66 141 114 137 110 85 63 15 7 351 349 343 235 236 212 195 190 182 188 183 162 120 183 130 108 105 64 32 58 64 77 110 107 115 126
283 272 239 234 256 268 13 92 53 325 289 236 226 230 209 186 231 219 208 191 180 228 202 226 261 261 256 263 279 267 288 312 305 270 297 77 321 275 198 277 120 262 270 243 137 209 241 210 217 242 240 138 183 158 153 130 117 86 38 24 9 29 60 90 40 9 6 25 46 41 16 16 91 102 105 118 112 91 87 77 70 72 80 109 126 129 119
286 263 276 268 243 64 55 125 161 272 230 230 190 255 267 171 246 265 127 233 224 222 206 240 229 254 259 287 312 316 151 269 314 327 334 307 148 301 61 278 57 276 279 299 89 197 286 295 138 244 164 104 104 118 144 144 137 108 77 71 79 80 79 82 79 67 68 68 57 52 47 48 43 56 73 85 104 106 78 66 67 67 52 55 16 336 130
279 276 242 280 27 349 346 328 274 219 230 212 190 198 242 254 210 284 264 256 274 137 195 273 258 271 229 251 279 293 107 241 280 291 284 283 65 276 266 283 50 283 276 301 98 239 247 272 275 282 50 85 129 138 134 141 127 118 97 97 99 95 89 82 75 69 77 79 69 61 52 46 51 51 59 64 73 77 84 68 57 58 53 79 82 62 59
358 336 332 307 290 283 268 201 209 188 186 255 264 234 206 282 208 223 232 266 80 308 200 202 265 316 335 310 291 294 271 221 299 275 285 272 142 274 316 321 180 276 307 59 330 246 265 276 281 52 85 106 118 139 148 140 132 127 118 117 108 104 101 90 81 69 55 62 69 70 62 55 52 46 43 49 63 74 79 85 83 75 69 70 66 86 76
158 254 289 284 242 214 245 219 175 241 198 176 196 257 191 230 217 258 173 211 250 265 107 202 275 288 255 213 256 205 271 40 281 234 245 290 93 231 273 261 229 249 18 35 260 269 265 270 302 52 83 115 138 150 150 137 139 133 124 115 105 92 87 84 77 70 65 67 67 65 67 61 53 48 37 77 97 92 82 73 69 90 82 81 76 78 78
284 262 227 220 249 170 217 216 156 203 231 209 203 225 183 220 196 179 237 113 85 270 14 331 336 332 326 85 315 326 212 195 215 267 255 252 282 250 229 241 239 60 78 243 245 260 303 350 354 30 59 98 128 141 140 141 145 139 139 132 120 112 105 103 102 97 93 102 85 62 37 53 86 104 91 65 138 153 138 98 59 47 44 139 119 70 62
269 225 219 230 227 155 175 292 189 207 238 194 211 258 219 251 305 265 328 40 315 325 325 299 316 316 304 323 269 218 277 334 121 264 286 283 267 250 250 305 25 246 268 281 276 274 226 74 39 49 103 140 150 148 144 154 158 158 147 144 139 132 122 95 59 54 71 56 26 325 334 277 167 96 91 90 78 28 250 137 78 216 185 222 165 100 75
237 284 257 231 273 241 227 237 160 228 225 223 232 244 260 287 329 304 45 1 314 313 319 330 313 303 299 315 294 328 19 287 267 240 293 300 285 272 356 6 265 277 263 260 266 294 43 34 32 31 12 103 150 148 150 153 148 151 159 164 155 157 153 133 70 51 77 63 15 24 76 98 68 117 112 94 81 81 76 84 75 344 310 228 109 56 53
208 194 263 306 272 214 207 241 210 226 2 228 251 287 306 337 347 317 337 328 307 335 315 302 291 298 306 310 283 225 206 219 261 279 283 268 265 309 146 273 257 233 248 275 285 357 30 36 27 22 16 8 146 151 160 159 168 175 178 152 169 167 162 157 129 114 115 127 43 27 56 79 74 101 132 108 72 69 75 94 65 4 303 331 65 50 26
226 43 256 227 224 202 207 223 303 290 225 267 292 312 317 310 283 266 123 352 324 306 309 319 304 288 261 186 218 281 299 294 282 242 296 324 316 278 258 231 245 237 255 294 45 23 1 7 8 5 354 315 195 170 174 172 175 180 171 177 182 177 175 180 190 134 154 180 156 67 50 20 332 4 61 66 76 60 49 63 66 50 13 218 177 83 60
330 266 229 259 299 300 261 8 298 259 207 175 226 263 256 262 267 291 20 325 304 316 319 295 307 302 292 313 277 272 243 182 252 232 175 221 256 271 273 241 247 223 87 6 8 349 342 341 355 345 327 225 201 195 184 182 181 181 188 186 195 191 189 193 190 176 167 154 198 107 141 180 250 338 9 136 108 83 59 41 39 63 51 52 56 62 83
216 201 212 239 247 230 225 265 270 269 237 201 219 226 266 273 273 311 62 310 323 308 288 250 229 263 294 296 279 277 272 259 282 304 245 229 256 284 278 274 348 16 5 356 342 331 330 327 330 323 324 216 199 203 191 179 186 197 185 195 199 200 204 199 201 177 180 132 160 166 161 202 175 107 76 69 67 77 87 75 50 52 58 71 64 86 75
226 278 268 265 257 299 65 248 255 258 254 259 326 317 312 296 307 320 51 322 306 298 267 273 299 289 293 277 277 266 26 13 279 253 259 262 6 287 298 306 349 355 345 335 325 322 323 321 316 319 313 240 198 198 198 188 188 192 183 189 199 201 193 198 210 194 186 184 174 173 179 193 150 91 90 86 108 142 103 106 90 70 75 79 82 94 115
210 225 233 203 231 258 268 286 284 268 280 294 293 298 303 280 303 328 1 297 286 272 273 271 253 266 269 266 293 310 305 270 263 268 255 217 97 288 337 336 346 344 337 325 328 330 326 319 327 319 303 289 207 188 189 187 181 168 163 161 161 164 172 221 225 187 172 165 170 183 172 167 144 131 134 157 156 198 218 144 97 72 81 98 103 103 109